Burlington, VT

1:10 PM EST on November 17, 2019 (GMT -0500)
Burlington International

Weather History for KBTV - October, 2019

Change the Weather History Date:

Tuesday, October 22, 2019

  Actual Average Record
Temperature  
Mean Temperature 52 °F 46 °F  
Max Temperature 62 °F 55 °F 81 °F (1979)
Min Temperature 42 °F 37 °F 23 °F (1959)
Degree Days  
Heating Degree Days 13 19  
Month to date heating degree days 296 338  
Since 1 July heating degree days 410 555  
Cooling Degree Days 0 0  
Month to date cooling degree days 0 0  
Year to date cooling degree days 606 489  
Growing Degree Days 2 (Base 50)    
Moisture  
Dew Point 43 °F    
Average Humidity 70    
Maximum Humidity 93    
Minimum Humidity 46    
Precipitation  
Precipitation 0.16 in 0.11 in 1.04 in (2016)
Month to date precipitation 4.12 2.60  
Year to date precipitation 34.12 30.31  
Snow  
Snow 0.00 in 0.00 in 5.10 in (1969)
Month to date snowfall 0.0 0.1  
Since 1 July snowfall 0.0 0.1  
Since 1 September snowfall 0.0 0.1  
Snow Depth 0.00 in    
Sea Level Pressure  
Sea Level Pressure 29.97 in    
Wind  
Wind Speed 10 mph (SSE)    
Max Wind Speed 18 mph    
Max Gust Speed 24 mph    
Visibility 10 miles    
Events Rain    
T = Trace of Precipitation, MM = Missing Value Source: NWS Daily Summary

Daily Weather History Graph

Daily Weather History Graph

Search for Another Location

Airport or City:

Astronomy

Oct. 22, 2019 Rise Set
Actual Time 7:16 AM EDT 5:57 PM EDT
Civil Twilight 6:46 AM EDT 6:26 PM EDT
Nautical Twilight 6:12 AM EDT 7:00 PM EDT
Astronomical Twilight 5:39 AM EDT 7:34 PM EDT
Moon 12:03 AM EDT (10/22) 3:22 PM EDT (10/22)
Length of Visible Light 11h 39m
Length of Day
10h 40m
Last Quarter, 37% of the Moon is Illuminated
Oct 22
Last Quarter
Oct 27
New
Nov 4
First Quarter
Nov 12
Full
Nov 19
Last Quarter

Hourly Weather History & Observations

Time (EDT) Temp. Windchill Dew Point Humidity Pressure Visibility Wind Dir Wind Speed Gust Speed Precip Events Conditions
12:54 AM 44.1 °F 41.5 °F 41.0 °F 89% 30.10 in 10.0 mi South 4.6 mph - N/A   Clear
1:54 AM 43.0 °F 41.3 °F 39.9 °F 89% 30.10 in 10.0 mi ESE 3.5 mph - N/A   Clear
3:54 AM 48.9 °F - 43.0 °F 80% 30.06 in 10.0 mi SE 4.6 mph - N/A   Clear
4:54 AM 51.1 °F - 44.1 °F 77% 30.04 in 10.0 mi SSW 8.1 mph - N/A   Clear
5:54 AM 52.0 °F - 43.0 °F 71% 30.06 in 10.0 mi South 11.5 mph - N/A   Clear
6:54 AM 53.1 °F - 42.1 °F 66% 30.02 in 10.0 mi SSE 4.6 mph - N/A   Scattered Clouds
7:54 AM 53.1 °F - 44.1 °F 71% 30.06 in 10.0 mi South 9.2 mph - N/A   Mostly Cloudy
8:54 AM 54.0 °F - 44.1 °F 69% 30.05 in 10.0 mi SSW 8.1 mph - N/A   Overcast
9:54 AM 55.9 °F - 44.1 °F 64% 30.01 in 10.0 mi South 8.1 mph - N/A   Mostly Cloudy
11:54 AM 62.1 °F - 43.0 °F 50% 30.00 in 10.0 mi South 16.1 mph 21.9 mph N/A   Mostly Cloudy
12:54 PM 61.0 °F - 42.1 °F 50% 29.97 in 10.0 mi SE 10.4 mph 23.0 mph N/A   Mostly Cloudy
1:54 PM 61.0 °F - 42.1 °F 50% 29.96 in 10.0 mi SE 11.5 mph - N/A   Overcast
2:54 PM 60.1 °F - 39.9 °F 47% 29.94 in 10.0 mi SSE 11.5 mph - N/A   Overcast
3:54 PM 60.1 °F - 36.0 °F 41% 29.92 in 10.0 mi SSE 15.0 mph - N/A   Overcast
4:54 PM 60.1 °F - 39.0 °F 46% 29.91 in 10.0 mi SSE 11.5 mph 21.9 mph N/A   Mostly Cloudy
5:54 PM 60.1 °F - 41.0 °F 49% 29.89 in 10.0 mi SSE 13.8 mph - N/A   Mostly Cloudy
6:54 PM 60.1 °F - 44.1 °F 55% 29.90 in 10.0 mi SSE 13.8 mph 20.7 mph N/A   Overcast
7:54 PM 59.0 °F - 45.0 °F 60% 29.91 in 10.0 mi SE 10.4 mph - N/A   Overcast
8:54 PM 57.9 °F - 46.0 °F 65% 29.88 in 10.0 mi SE 11.5 mph - 0.00 in Rain Light Rain
9:54 PM 57.9 °F - 48.0 °F 70% 29.87 in 10.0 mi South 17.3 mph 23.0 mph 0.00 in Rain Light Rain
10:23 PM 54.0 °F - 50.0 °F 86% 29.87 in 3.0 mi South 8.1 mph - 0.06 in Rain Rain
10:54 PM 53.1 °F - 51.1 °F 93% 29.85 in 9.0 mi SE 4.6 mph - 0.14 in Rain Light Rain